Location: Cargill Incorporated Elevator
(42.7294°N, 93.7333°W)
Time: 05:42:15
(UTC+00:00)

Helios 1A Rocket - Pass Details

Date: 19 January 2026
Orbit: 425 x 436 km, 98.3° (Epoch: 15 February)

Event Time Altitude Azimuth Distance (km) Brightness Sun altitude
Rises 12:35:37 0° 182° (S) 2,430 6.3 -11.8°
Reaches altitude 10° 12:37:43 10° 190° (S) 1,564 5.2 -11.5°
Maximum altitude 12:40:52 38° 260° (W) 692 2.9 -10.9°
Drops below altitude 10° 12:44:03 10° 331° (NNW) 1,575 4.7 -10.4°
Enters shadow 12:44:41 - 334° (NNW) 1,829 5.1 -10.3°
